Weather in Grivenskaya

Russia / Krasnodar Krai     45°38′40″N   38°09′33″E
temp.,
°C
wind,
m/s
gust,
m/s
humid.,
%
clouds,
%
prec.,
mm/h
press.,
hPa
HPBL,
m
28 june, tue
tue2800:00+19e2383100 0.1 101240
03:00+19ne4980100 0.2 1012192
06:00+18ne4969100 0.1 1012187
09:00+19ene71173100 0.7 1013429
12:00+23ene5962100 0.8 1013706
15:00+25ene6850100 1.1 1013914
18:00+23ene4871100 0.0 1013462
21:00+20ne3380100 0.0 101345
29 june, wed
wed2900:00+19ne337281 0.0 101336
03:00+18ne336969 0.0 101325
06:00+19e226794 0.0 101340
09:00+25e345015 0.0 1013425
12:00+29ene453698 0.0 10131214
15:00+31ene46360 0.0 10122282
18:00+27ne7115765 0.0 1012604
21:00+24ene4116298 0.0 1012256
30 june, thu
thu3000:00+23ene613490 0.0 1013348
03:00+20ne511530 0.0 1013236
06:00+18ene411600 0.0 1013255
09:00+24ene56494 0.0 1014547
12:00+28ene66410 0.0 10131341
15:00+30ene66342 0.0 10122139
18:00+28ne58365 0.0 1012659
21:00+21nne411495 0.0 1013218
1 july, fri
fri100:00+21ne61438100 0.0 1014379
03:00+19ne512447 0.0 1014289
06:00+18ne512550 0.0 1014273
09:00+24ne79400 0.0 1015828
12:00+28ne67320 0.0 10141963
15:00+29ne77280 0.0 10132378
18:00+28ne68320 0.0 1014825
21:00+21nne48480 0.0 1015130
2 july, sat
sat200:00+19ne411500 0.0 1015189
03:00+19ne513460 0.0 1016285
06:00+18ne512570 0.0 1017307
09:00+24ne79410 0.0 1017853
12:00+27ne78340 0.0 10172036
15:00+29ne67260 0.0 10162308
18:00+28ne58280 0.0 1016851
21:00+21ne44380 0.0 101746